Weather History for Albuquerque, NM

Change the Weather History Date:

Monday, August 20, 2012

  Actual Average Record
Temperature  
Mean Temperature 75 °F 76 °F  
Max Temperature 84 °F 87 °F 98 °F (1905)
Min Temperature 66 °F 65 °F 51 °F (1914)
Degree Days  
Heating Degree Days 0 0  
Month to date heating degree days 0 0  
Since 1 June heating degree days 0 4  
Since 1 July heating degree days 0 0  
Cooling Degree Days 10 11  
Month to date cooling degree days 305 234  
Year to date cooling degree days 1413 1045  
Since 1 June cooling degree days 1241 947  
Growing Degree Days 25 (Base 50)    
Moisture  
Dew Point 56 °F    
Average Humidity 53    
Maximum Humidity 73    
Minimum Humidity 33    
Precipitation  
Precipitation 0.02 in 0.05 in 0.94 in (1932)
Month to date precipitation 1.58 1.11  
Year to date precipitation 4.75 5.81  
Snow  
Snow 0.00 in - - ()
Month to date snowfall 0.0  
Since 1 June snowfall 0.0  
Since 1 July snowfall 0.0  
Snow Depth 0.00 in    
Sea Level Pressure  
Sea Level Pressure 29.94 in    
Wind  
Wind Speed 8 mph (South)    
Max Wind Speed 24 mph    
Max Gust Speed 31 mph    
Visibility 10 miles    
Events Rain , Thunderstorm    
T = Trace of Precipitation, MM = Missing Value Source: NWS Daily Summary

Daily Weather History Graph

Daily Weather History Graph

Search for Another Location

Airport:

Trip Planner

Search our weather history database for the weather conditions in past years. The results will help you decide how hot, cold, wet, or windy it might be!

Date:

Astronomy

Aug. 20, 2012 Rise Set
Actual Time 6:30 AM MDT 7:48 PM MDT
Civil Twilight 6:04 AM MDT 8:14 PM MDT
Nautical Twilight 5:32 AM MDT 8:46 PM MDT
Astronomical Twilight 4:59 AM MDT 9:18 PM MDT
Moon 9:44 AM MDT (8/20) 9:25 PM MDT (8/20)
Length of Visible Light 14h 10m
Length of Day
13h 17m
Waxing Crescent, 11% of the Moon is Illuminated
Aug 20
Waxing Crescent
Aug 24
First Quarter
Aug 31
Full
Sep 8
Last Quarter
Sep 15
New

Hourly Weather History & Observations

Time (MDT) Temp. Heat Index Dew Point Humidity Pressure Visibility Wind Dir Wind Speed Gust Speed Precip Events Conditions
12:52 AM 73.0 °F - 55.0 °F 53% 29.93 in 10.0 mi Variable 3.5 mph - N/A   Scattered Clouds
1:52 AM 71.1 °F - 55.0 °F 57% 29.91 in 10.0 mi SE 9.2 mph - N/A   Scattered Clouds
2:52 AM 70.0 °F - 55.0 °F 59% 29.91 in 10.0 mi SE 6.9 mph - N/A   Scattered Clouds
3:52 AM 71.1 °F - 54.0 °F 55% 29.90 in 10.0 mi WSW 4.6 mph - N/A   Mostly Cloudy
4:52 AM 69.1 °F - 54.0 °F 58% 29.91 in 10.0 mi Calm Calm - N/A   Mostly Cloudy
5:52 AM 68.0 °F - 54.0 °F 61% 29.92 in 10.0 mi SE 3.5 mph - N/A   Mostly Cloudy
6:52 AM 68.0 °F - 53.1 °F 59% 29.95 in 10.0 mi Calm Calm - N/A   Mostly Cloudy
7:52 AM 70.0 °F - 52.0 °F 53% 29.96 in 10.0 mi South 8.1 mph - N/A   Mostly Cloudy
8:52 AM 72.0 °F - 53.1 °F 51% 29.97 in 10.0 mi South 12.7 mph - N/A   Mostly Cloudy
9:52 AM 73.0 °F - 55.0 °F 53% 29.98 in 10.0 mi South 13.8 mph - N/A   Mostly Cloudy
10:52 AM 73.0 °F - 55.0 °F 53% 29.99 in 10.0 mi South 15.0 mph 24.2 mph N/A   Mostly Cloudy
11:52 AM 72.0 °F - 57.0 °F 59% 29.98 in 10.0 mi SSW 8.1 mph - N/A   Mostly Cloudy
12:52 PM 75.9 °F - 55.0 °F 48% 29.94 in 10.0 mi SSE 9.2 mph - N/A   Mostly Cloudy
1:52 PM 80.1 °F 79.9 °F 53.1 °F 39% 29.89 in 10.0 mi SSE 4.6 mph - N/A   Scattered Clouds
2:52 PM 82.9 °F - 50.0 °F 32% 29.86 in 10.0 mi SSW 6.9 mph - N/A   Mostly Cloudy
3:26 PM 84.2 °F - 51.8 °F 33% 30.11 in 10.0 mi WNW 8.1 mph - N/A Thunderstorm Thunderstorm
3:52 PM 82.9 °F - 52.0 °F 34% 29.84 in 10.0 mi WNW 8.1 mph - N/A   Mostly Cloudy
4:52 PM 77.0 °F - 53.1 °F 43% 29.88 in 10.0 mi South 18.4 mph 27.6 mph 0.00 in   Mostly Cloudy
5:42 PM 71.6 °F - 59.0 °F 64% 30.17 in 6.0 mi SW 16.1 mph - 0.01 in Rain Rain
5:52 PM 71.1 °F - 60.1 °F 68% 29.92 in 7.0 mi South 16.1 mph - 0.02 in Rain Light Rain
6:52 PM 70.0 °F - 62.1 °F 76% 29.93 in 10.0 mi SSE 9.2 mph - 0.00 in   Mostly Cloudy
7:52 PM 70.0 °F - 61.0 °F 73% 29.92 in 10.0 mi SE 8.1 mph - N/A   Mostly Cloudy
8:52 PM 70.0 °F - 59.0 °F 68% 29.94 in 10.0 mi SSE 5.8 mph - N/A   Mostly Cloudy
9:52 PM 69.1 °F - 59.0 °F 70% 29.94 in 10.0 mi ESE 6.9 mph - N/A   Mostly Cloudy
10:52 PM 68.0 °F - 59.0 °F 73% 29.94 in 10.0 mi ESE 6.9 mph - N/A   Mostly Cloudy
11:52 PM 69.1 °F - 59.0 °F 70% 29.95 in 10.0 mi SSE 3.5 mph - N/A   Mostly Cloudy